www.pogodaiklimat.ru

Погода и климат >> Архив погоды >> Австралия >> Richmond Airport


ПОГОДА в Richmond Airport

  • Прогноз погоды в Richmond Airport
  • Монитор погоды в Richmond Airport
  • Климат города

АРХИВ ПОГОДЫ в Richmond Airport

Время (UTC), дата Ветер
(напр.,м/с)
 
Видим.   Явления Облачность Т
(С)
Тd
(С)
f
(%)
Тe
(С)
Тes
(С)
Комфортность P
(гПа)
Po
(гПа)
Тmin
(С)
Tmax
(С)
R
(мм)
R24
(мм)
S
(см)
02 9.10 З 5 н/о н/о +34.8 +9.9 22 +34 +34 очень
жарко
1012.2 988.8 +15.7
03 9.10 СЗ 3 н/о н/о +35.3 +8.9 20 +34 +34 очень
жарко
1010.9 987.6
05 9.10 ЮЗ 5 н/о н/о +37.6 +6.6 15 +35 +35 очень
жарко
1008.9 985.6
06 9.10 Ю 4 н/о н/о +37.0 +6.1 15 +34 +34 очень
жарко
1008.3 985.0
08 9.10 ЮЗ 3 н/о 4/0
[]
+35.8 +5.1 15 +33 +34 жарко 1008.5 985.2
09 9.10 Ю 5 н/о н/о +32.4 +2.5 15 +30 +30 жарко 1008.9 985.6
11 9.10 ЮВ 4 н/о н/о +27.5 +0.3 17 +25 +25 комфорт 1009.9 986.6
12 9.10 ЮВ 2 н/о н/о +26.3 +1.6 20 +25 +25 комфорт 1010.1 986.8
14 9.10 СВ 3 н/о н/о +24.4 +2.5 24 +24 +24 комфорт 1009.6 986.3 +38.9
15 9.10 С 2 н/о н/о +20.9 +2.2 29 +22 +22 комфорт 1009.3 986.0
17 9.10 В 3 н/о н/о +20.1 +2.0 30 +21 +21 комфорт 1009.0 985.7
18 9.10 СВ 3 н/о н/о +19.4 +2.7 33 +20 +20 1008.9 985.6
20 9.10 С 3 н/о н/о +19.6 +3.3 34 +20 +20 1010.2 986.9
21 9.10 СВ 3 н/о н/о +21.1 +4.6 34 +21 +21 комфорт 1010.7 987.4
23 9.10 СЗ 6 н/о н/о +31.3 +14.0 35 +33 +33 жарко 1011.8 988.4
00 10.10 СЗ 6 н/о н/о +33.8 +6.3 18 +35 +35 очень
жарко
1011.6 988.3
02 10.10 СЗ 5 н/о н/о +36.5 +8.4 18 +35 +35 очень
жарко
1010.4 987.1 +17.2
03 10.10 З 7 н/о н/о +37.8 +7.7 16 +36 +36 очень
жарко
1009.4 986.1
05 10.10 З 5 н/о 3/0
[]
+38.9 +7.6 15 +37 +43 очень
жарко
1007.8 984.5
06 10.10 З 5 н/о н/о +38.9 +8.5 16 +37 +37 очень
жарко
1007.2 984.0
08 10.10 З 5 н/о 10/0
[]
+35.8 +8.6 19 +34 +34 очень
жарко
1007.8 984.5
09 10.10 СЗ 4 н/о н/о +34.6 +6.0 17 +32 +32 жарко 1008.3 985.0
11 10.10 Ю 6 н/о 6/0
[]
+31.6 +3.6 17 +29 +29 жарко 1010.0 986.7
12 10.10 З 5 н/о н/о +30.5 +3.5 18 +28 +28 жарко 1011.1 987.8
14 10.10 ЮЗ 4 н/о 10/0
[]
+27.6 +4.0 22 +26 +26 жарко 1010.5 987.2 +40.2
15 10.10 ЮЗ 3 н/о н/о +27.6 +4.6 23 +26 +26 жарко 1010.2 986.9
17 10.10 штиль 0 н/о 9/0
[]
+26.0 +5.6 27 +25 +25 комфорт 1009.5 986.2
18 10.10 ЮЗ 3 н/о н/о +25.3 +4.4 26 +25 +25 комфорт 1009.5 986.2
20 10.10 Ю 4 н/о ливневой дождь 10/10 1500 м
[]
+25.0 +6.2 30 +25 +25 комфорт 1010.7 987.4
21 10.10 ЮВ 4 н/о н/о +26.7 +6.2 27 +26 +26 жарко 1010.9 987.6
23 10.10 ЮВ 7 н/о н/о +31.4 +6.5 21 +30 +30 жарко 1012.0 988.6
00 11.10 В 5 н/о н/о +34.2 +7.3 19 +32 +32 жарко 1012.3 988.9
02 11.10 Ю 4 н/о 1/0
[]
+35.8 +6.1 16 +33 +46 жарко 1010.7 987.4 +23.3
03 11.10 ЮЗ 3 н/о н/о +36.7 +5.9 15 +34 +34 очень
жарко
1009.5 986.2
05 11.10 Ю 4 н/о 3/0
[]
+36.1 +6.3 16 +34 +42 очень
жарко
1008.3 985.0
06 11.10 З 5 н/о н/о +38.1 +7.0 15 +36 +36 очень
жарко
1007.7 984.4
08 11.10 З 6 н/о 9/0
[]
+35.4 +5.8 16 +33 +33 жарко 1008.5 985.2
09 11.10 ЮЗ 6 н/о н/о +33.9 +5.4 17 +32 +32 жарко 1009.1 985.8
11 11.10 Ю 10 н/о 10/0
[]
+32.3 +5.7 19 +30 +30 жарко 1010.8 987.5
12 11.10 ЮЗ 8 н/о н/о +30.9 +6.0 21 +29 +29 жарко 1012.8 989.4
14 11.10 ЮЗ 5 н/о слаб. ливневой дождь 10/0
[]
+26.3 +9.6 35 +27 +27 жарко 1014.9 991.5 +38.7
15 11.10 ЮВ 5 н/о н/о +26.4 +6.9 29 +26 +26 жарко 1012.7 989.3
17 11.10 Ю 4 н/о 10/0
[]
+25.1 +6.3 30 +25 +25 комфорт 1011.4 988.1
18 11.10 Ю 7 н/о н/о +25.2 +6.4 30 +25 +25 комфорт 1011.4 988.1
20 11.10 ЮВ 7 н/о 10/0
[]
+24.5 +3.8 26 +24 +24 комфорт 1012.5 989.1
21 11.10 ЮВ 6 н/о н/о +24.4 +4.2 27 +24 +24 комфорт 1013.2 989.8
23 11.10 В 5 н/о в посл. час дождь со снегом {туман} 10/0
[]
+23.4 +10.5 44 +25 +28 комфорт 1013.7 990.3
00 12.10 ЮВ 7 н/о н/о +26.6 +9.9 35 +27 +27 жарко 1013.1 989.7
02 12.10 ЮВ 6 н/о 5/0
[]
+30.1 +10.1 29 +30 +36 жарко 1011.9 988.5 +20.9
03 12.10 ЮВ 4 н/о н/о +30.0 +8.4 26 +29 +29 жарко 1010.7 987.4
05 12.10 Ю 3 н/о 4/0
[]
+32.1 +7.7 22 +31 +41 жарко 1009.0 985.7
06 12.10 ЮЗ 3 н/о н/о +32.0 +7.6 22 +31 +31 жарко 1008.6 985.3
08 12.10 ЮЗ 4 н/о 6/0
[]
+31.6 +7.3 22 +30 +30 жарко 1008.3 985.0
09 12.10 Ю 4 н/о н/о +30.5 +6.4 22 +29 +29 жарко 1008.8 985.5
11 12.10 Ю 4 н/о 4/0
[]
+26.4 +5.9 27 +26 +26 жарко 1010.0 986.7
12 12.10 В 4 н/о н/о +26.0 +6.1 28 +26 +26 жарко 1010.8 987.5
14 12.10 В 4 н/о 9/0
[]
+24.2 +9.0 38 +25 +25 комфорт 1010.8 987.5 +33.5
15 12.10 В 1 н/о н/о +22.8 +7.8 38 +24 +24 комфорт 1010.6 987.3
17 12.10 В 2 н/о 9/0
[]
+20.9 +9.2 47 +23 +23 комфорт 1009.6 986.3
18 12.10 ЮВ 3 н/о н/о +20.3 +9.5 50 +22 +22 комфорт 1009.8 986.5
20 12.10 В 2 н/о н/о +18.1 +8.4 53 +19 +19 1010.9 987.6
21 12.10 СВ 3 н/о н/о +21.2 +12.1 56 +23 +23 комфорт 1011.3 988.0
23 12.10 С 5 н/о н/о +29.4 +16.2 45 +33 +33 душно 1012.0 988.6
00 13.10 С 4 н/о н/о +31.2 +11.1 29 +31 +31 жарко 1011.3 988.0
02 13.10 З 2 н/о 6/0
[]
+33.6 +9.0 22 +32 +47 жарко 1009.8 986.5 +17.9
03 13.10 З 3 н/о н/о +34.4 +7.5 19 +33 +33 жарко 1008.7 985.4
05 13.10 ЮЗ 3 н/о н/о +35.1 +5.5 16 +33 +33 жарко 1007.0 983.8
06 13.10 З 8 н/о н/о +36.2 +4.5 14 +33 +33 жарко 1006.5 983.3
08 13.10 ЮЗ 6 н/о 1/0
[]
+33.7 +2.5 14 +31 +31 жарко 1007.4 984.1
09 13.10 ЮЗ 3 н/о н/о +29.6 +0.2 15 +27 +27 жарко 1008.2 984.9
11 13.10 Ю 3 н/о н/о +26.2 +0.8 19 +24 +24 комфорт 1009.7 986.4
12 13.10 ЮВ 3 н/о н/о +25.5 +0.9 20 +24 +24 комфорт 1010.1 986.8
14 13.10 В 4 н/о н/о +22.4 +1.4 25 +22 +22 комфорт 1010.1 986.8 +36.8
15 13.10 Ю 2 н/о н/о +19.7 -0.3 26 +20 +20 1009.8 986.5
17 13.10 В 2 н/о н/о +18.6 +2.4 34 +19 +19 1009.3 986.0
18 13.10 В 3 н/о н/о +18.1 +4.3 40 +18 +18 1009.4 986.1
20 13.10 В 3 н/о н/о +17.0 +10.4 65 +17 +17 1010.8 987.5
21 13.10 С 2 н/о н/о +19.6 +11.4 59 +22 +22 комфорт 1012.0 988.6
23 13.10 С 5 н/о н/о +29.9 +13.6 37 +31 +31 жарко 1012.1 988.7
00 14.10 С 5 н/о н/о +33.3 +10.6 25 +33 +33 жарко 1011.6 988.3
02 14.10 З 3 н/о н/о +35.9 +7.0 17 +34 +34 очень
жарко
1009.8 986.5 +15.7
03 14.10 ЮЗ 3 н/о н/о +37.3 +5.3 14 +35 +35 очень
жарко
1008.8 985.5
05 14.10 ЮВ 4 н/о н/о +38.2 +5.0 13 +35 +35 очень
жарко
1007.2 984.0
06 14.10 З 7 н/о н/о +38.3 +5.0 13 +35 +35 очень
жарко
1007.0 983.8
08 14.10 Ю 3 н/о 3/0
[]
+36.0 +3.3 13 +33 +33 жарко 1007.9 984.6
09 14.10 ЮВ 4 н/о н/о +32.0 +2.1 15 +29 +29 жарко 1008.6 985.3
11 14.10 ЮВ 5 н/о н/о +28.8 +2.1 18 +27 +27 жарко 1009.9 986.6
12 14.10 В 5 н/о н/о +27.2 +2.3 20 +26 +26 жарко 1010.3 987.0
14 14.10 В 5 н/о н/о +25.0 +2.4 23 +24 +24 комфорт 1010.0 986.7 +39.2
15 14.10 СВ 4 н/о н/о +25.1 +5.3 28 +25 +25 комфорт 1009.7 986.4
17 14.10 СВ 4 н/о н/о +23.5 +8.8 39 +24 +24 комфорт 1009.2 985.9
18 14.10 СВ 4 н/о н/о +23.9 +10.6 43 +25 +25 комфорт 1009.6 986.3
20 14.10 СВ 3 н/о н/о +22.0 +12.8 56 +25 +25 комфорт 1011.0 987.7
21 14.10 штиль 0 н/о н/о +24.1 +11.4 45 +26 +26 жарко 1012.2 988.8
23 14.10 С 6 н/о н/о +32.0 +14.6 35 +34 +34 душно 1012.6 989.2
00 15.10 С 7 н/о н/о +33.4 +14.5 32 +35 +35 душно 1012.2 988.8
02 15.10 СЗ 6 н/о н/о +36.8 +13.5 25 +37 +37 очень
жарко
1010.6 987.3 +21.7
03 15.10 СЗ 5 н/о н/о +37.4 +12.1 22 +37 +37 очень
жарко
1009.6 986.3
05 15.10 ЮЗ 4 н/о 1/0
[]
+38.7 +10.9 19 +38 +47 очень
жарко
1007.7 984.4
06 15.10 З 10 н/о н/о +35.7 +9.3 20 +34 +34 очень
жарко
1007.0 983.8
08 15.10 З 6 н/о 10/0
[]
+33.4 +8.1 21 +32 +32 жарко 1007.9 984.6
09 15.10 ЮЗ 8 н/о н/о +30.1 +13.8 37 +32 +32 жарко 1009.7 986.4
11 15.10 ЮВ 5 н/о в посл. час дождь со снегом 10/0
[]
+25.7 +17.9 62 +30 +30 душно 1011.5 988.2
12 15.10 СВ 3 н/о н/о +26.0 +16.3 55 +29 +29 душно 1012.0 988.6
14 15.10 З 5 н/о сильный ливневой дождь {туман} 10/0 2000 м
[]
+22.4 +19.6 84 +28 +28 душно 1013.7 990.3 +39.6
15 15.10 СЗ 2 н/о н/о +23.2 +19.2 78 +30 +30 очень
душно
1013.1 989.7
17 15.10 В 3 н/о {туман} 10/0
[]
+22.1 +19.6 86 +28 +28 душно 1011.2 987.9
18 15.10 В 3 н/о н/о +21.9 +19.6 87 +27 +27 душно 1010.7 987.4
20 15.10 ЮВ 3 н/о 10/0
[]
+21.7 +19.6 88 +27 +27 душно 1011.9 988.5
21 15.10 В 3 н/о н/о +22.6 +19.9 85 +29 +29 очень
душно
1012.7 989.3
23 15.10 Ю 7 н/о 6/0
[]
+27.9 +17.4 53 +32 +34 душно 1014.0 990.6
00 16.10 ЮЗ 6 н/о н/о +29.7 +16.8 46 +33 +33 душно 1014.3 990.9

 

Местоположение метеостанции Richmond Airport (Квинсленд, Австралия): широта -20.70 долгота 143.11 высота над уровнем моря 207 м.

В архиве по умолчанию представлена погода в Richmond Airport за последнюю неделю. Архивные данные за месяц целиком и за предыдущие месяцы, начиная с января 2011 года, Вы можете получить, выбрав интересующий диапазон дат из раскрывающегося списка и нажав кнопку "Ввод!".


*Определитесь, кто Вы:
робот инопланетянин человек

Внимание! Время в таблицах - всемирное. Для получения местного времени необходимо прибавить поправку, которая в Richmond Airport равна 10 ч.

Смотрите также архив погоды в соседних городах и на ближайших метеорологических станциях:

Погода в Hughenden Airport (Квинсленд, Австралия) (117 км)
Погода в Julia Creek Airport (Квинсленд, Австралия) (144 км)
Погода в Winton Airport (Квинсленд, Австралия) (186 км)
Погода в Trepell Airport (Квинсленд, Австралия) (263 км)
Погода в Georgetown Airport (Квинсленд, Австралия) (271 км)
Погода в Cloncurry Composite (Квинсленд, Австралия) (272 км)
Погода в Longreach Airport (Квинсленд, Австралия) (327 км)
Погода в Phosphate Hill Airport (Квинсленд, Австралия) (353 км)
Погода в Lake Julius Aws (Квинсленд, Австралия) (358 км)
Погода в Mount Isa (Квинсленд, Австралия) (378 км)

Пояснения к столбцам:

Ветер - указаны скорость ветра в м/с - средняя за 10 мин, порывы в срок и между сроками (в фигурных скобках) и направление, откуда дует ветер: С - северный, СВ - северо-восточный, В - восточный, ЮВ - юго-восточный, Ю - южный, ЮЗ - юго-западный, З - западный, СЗ - северо-западный.
Видимость - горизонтальная дальность видимости в метрах или километрах. При видимости от 1 до 10 км при отсутствии осадков обычно наблюдается дымка, при ухудшении видимости до 1 км и менее - туман. В сухую погоду видимость может ухудшаться дымом, пылью или мглою.
Явления - указаны атмосферные явления, наблюдавшиеся в срок или в последний час перед сроком; фигурными скобками обозначены явления, наблюдавшиеся между сроками (за 1-3 часа до срока); квадратными скобками обозначены град или гололедные отложения с указанием их диаметра в мм.
Облачность - указаны через наклонную черту общая и нижняя облачность в баллах и высота нижней границы облаков в метрах; квадратными скобками обозначены формы облаков: Ci - перистые, Cs - перисто-слоистые, Cc - перисто-кучевые, Ac - высококучевые, As - высокослоистые, Sc - слоисто-кучевые, Ns - слоисто-дождевые, Cu - кучевые, Cb - кучево-дождевые. Подробнее классификацию облаков см. в Атласе облаков (PDF).
T - Температура воздуха - температура, измеренная на высоте 2 м над землей.
Td - Температура точки росы - температура, при понижении до которой содержащийся в воздухе водяной пар достигнет насыщения.
f - Относительная влажность воздуха - влажноcть воздуха, измеренная на высоте 2 м над землей.
Te - Эффективная температура - температура, которую ощущает одетый по сезону человек в тени. Характеристика душности погоды. При расчете учитывается влияние влажности воздуха и скорости ветра на теплоощущения человека.
Tes - Эффективная температура на солнце - температура, которую ощущает человек, с поправкой на солнечный нагрев. Характеристика знойности погоды. Зависит от высоты солнца над горизонтом, облачности и скорости ветра. Ночью, в пасмурную погоду, а также при ветре 12 м/с и более поправка равна нулю.
P - Атмосферное давление - приведенное к уровню моря атмосферное давление.
Po - Атмосферное давление - измеренное на уровне метеостанции атмосферное давление.
Tmin - Минимальная температура - минимум температуры воздуха на высоте 2 м над землей.
Tmax - Максимальная температура - максимум температуры воздуха на высоте 2 м над землей.
R - Количество осадков - Количество выпавших осадков за период времени, мм. При наведении курсора мыши на число - период времени, за который выпало указанное количество осадков.
R24 - Количество осадков - Количество выпавших осадков за 24 часа, мм.
S - Снежный покров - Высота снежного покрова, см. При наведении курсора мыши на число - состояние снежного покрова и степень покрытия местности в баллах.